• In Deutschland
  • Länderverzeichnis
  • Für 7 Tage
  • Wassertemperatur
  • Satellitenkarten
  • Wetterkarte
  • Widgets
  • user-avatar
    Anmelden

    Stündliche Wetter Makoua

    Heute, 26 September, Dienstag

    Zeit Temperatur Niederschläge Wind Luftdruck Luftfeuchtigkeit
    00:00 +25°C° 0,4 mm 1 m/S 726 mmHg 89%
    01:00 +24°C° 0,4 mm 1 m/S 726 mmHg 92%
    02:00 +24°C° 0,5 mm 1 m/S 726 mmHg 93%
    03:00 +24°C° 0,5 mm 1 m/S 725 mmHg 94%
    04:00 +24°C° 0,5 mm 1 m/S 725 mmHg 95%
    05:00 +24°C° 0,1 mm 1 m/S 726 mmHg 94%
    06:00 +24°C° 0,1 mm 1 m/S 726 mmHg 93%
    07:00 +25°C° 0,1 mm 1 m/S 726 mmHg 91%
    08:00 +26°C° 0,4 mm 1 m/S 727 mmHg 85%
    09:00 +28°C° 0,4 mm 1 m/S 727 mmHg 80%
    10:00 +29°C° 0,4 mm 1 m/S 727 mmHg 74%
    11:00 +30°C° 1,2 mm 1 m/S 727 mmHg 73%
    12:00 +30°C° 1,2 mm 1 m/S 726 mmHg 73%
    13:00 +30°C° 1,2 mm 1 m/S 725 mmHg 73%
    14:00 +30°C° 0,7 mm 1 m/S 725 mmHg 73%
    15:00 +30°C° 0,7 mm 1 m/S 724 mmHg 73%
    16:00 +30°C° 0,7 mm 1 m/S 724 mmHg 73%
    17:00 +28°C° 0 mm 1 m/S 724 mmHg 78%
    18:00 +25°C° 0 mm 0 m/S 725 mmHg 83%
    19:00 +24°C° 0 mm 0 m/S 725 mmHg 87%
    20:00 +24°C° 0 mm 0 m/S 725 mmHg 88%
    21:00 +23°C° 0 mm 0 m/S 726 mmHg 89%
    22:00 +23°C° 0 mm 0 m/S 726 mmHg 90%
    23:00 +25°C° 0 mm 1 m/S 726 mmHg 91%

    Morgen, 27 September, Mittwoch

    Zeit Temperatur Niederschläge Wind Luftdruck Luftfeuchtigkeit
    00:00 +25°C° 0 mm 1 m/S 726 mmHg 92%
    01:00 +25°C° 0 mm 1 m/S 726 mmHg 92%
    02:00 +24°C° 0,1 mm 1 m/S 725 mmHg 93%
    03:00 +24°C° 0,1 mm 1 m/S 725 mmHg 93%
    04:00 +24°C° 0,1 mm 1 m/S 725 mmHg 94%
    05:00 +24°C° 0,1 mm 1 m/S 726 mmHg 92%
    06:00 +25°C° 0,1 mm 1 m/S 726 mmHg 91%
    07:00 +25°C° 0,1 mm 1 m/S 727 mmHg 89%
    08:00 +27°C° 0,3 mm 1 m/S 727 mmHg 82%
    09:00 +28°C° 0,3 mm 1 m/S 727 mmHg 76%
    10:00 +30°C° 0,3 mm 2 m/S 728 mmHg 69%
    11:00 +31°C° 0,5 mm 1 m/S 727 mmHg 65%
    12:00 +32°C° 0,5 mm 1 m/S 726 mmHg 60%
    13:00 +33°C° 0,5 mm 1 m/S 725 mmHg 56%
    14:00 +33°C° 0,3 mm 1 m/S 725 mmHg 58%
    15:00 +32°C° 0,3 mm 1 m/S 724 mmHg 61%
    16:00 +32°C° 0,3 mm 1 m/S 724 mmHg 63%
    17:00 +28°C° 1,2 mm 0 m/S 724 mmHg 72%
    18:00 +26°C° 1,2 mm 0 m/S 725 mmHg 82%
    19:00 +24°C° 1,2 mm 0 m/S 725 mmHg 91%
    20:00 +23°C° 0,6 mm 0 m/S 726 mmHg 92%
    21:00 +23°C° 0,6 mm 0 m/S 726 mmHg 92%
    22:00 +23°C° 0,6 mm 0 m/S 727 mmHg 93%
    23:00 +23°C° 0,8 mm 0 m/S 726 mmHg 93%

    übermorgen, 28 September, Donnerstag

    Zeit Temperatur Niederschläge Wind Luftdruck Luftfeuchtigkeit
    00:00 +24°C° 0,8 mm 1 m/S 726 mmHg 94%
    01:00 +24°C° 0,8 mm 1 m/S 726 mmHg 94%
    02:00 +24°C° 0 mm 1 m/S 726 mmHg 94%
    03:00 +24°C° 0 mm 1 m/S 725 mmHg 95%
    04:00 +24°C° 0 mm 1 m/S 725 mmHg 95%
    05:00 +24°C° 0 mm 1 m/S 726 mmHg 94%
    06:00 +24°C° 0 mm 1 m/S 726 mmHg 93%
    07:00 +25°C° 0 mm 1 m/S 727 mmHg 92%
    08:00 +26°C° 0,2 mm 1 m/S 728 mmHg 84%
    09:00 +28°C° 0,2 mm 1 m/S 728 mmHg 76%
    10:00 +30°C° 0,2 mm 1 m/S 729 mmHg 68%
    11:00 +31°C° 0,7 mm 1 m/S 728 mmHg 66%
    12:00 +31°C° 0,7 mm 1 m/S 727 mmHg 65%
    13:00 +32°C° 0,7 mm 1 m/S 726 mmHg 64%
    14:00 +31°C° 0,3 mm 1 m/S 726 mmHg 64%
    15:00 +31°C° 0,3 mm 1 m/S 726 mmHg 63%
    16:00 +31°C° 0,3 mm 1 m/S 725 mmHg 62%
    17:00 +29°C° 2 mm 1 m/S 726 mmHg 73%
    18:00 +25°C° 2 mm 0 m/S 726 mmHg 83%
    19:00 +23°C° 2 mm 0 m/S 726 mmHg 93%
    20:00 +23°C° 0,2 mm 0 m/S 727 mmHg 94%
    21:00 +25°C° 0,2 mm 1 m/S 727 mmHg 94%
    22:00 +24°C° 0,2 mm 1 m/S 727 mmHg 95%
    23:00 +24°C° 0 mm 1 m/S 726 mmHg 95%

    29 September, Freitag

    Zeit Temperatur Niederschläge Wind Luftdruck Luftfeuchtigkeit
    00:00 +24°C° 0 mm 1 m/S 726 mmHg 96%
    01:00 +24°C° 0 mm 1 m/S 725 mmHg 96%
    02:00 +24°C° 0 mm 1 m/S 725 mmHg 96%
    03:00 +24°C° 0 mm 1 m/S 725 mmHg 96%
    04:00 +24°C° 0 mm 1 m/S 726 mmHg 96%
    05:00 +24°C° 0 mm 1 m/S 726 mmHg 96%
    06:00 +24°C° 0 mm 1 m/S 726 mmHg 95%
    07:00 +24°C° 0 mm 1 m/S 727 mmHg 94%
    08:00 +26°C° 0 mm 1 m/S 727 mmHg 86%
    09:00 +28°C° 0 mm 2 m/S 728 mmHg 78%
    10:00 +29°C° 0 mm 2 m/S 728 mmHg 70%
    11:00 +31°C° 0 mm 2 m/S 727 mmHg 63%
    12:00 +32°C° 0 mm 2 m/S 726 mmHg 55%
    13:00 +35°C° 0 mm 2 m/S 725 mmHg 48%
    14:00 +33°C° 0,2 mm 1 m/S 725 mmHg 51%
    15:00 +33°C° 0,2 mm 1 m/S 725 mmHg 53%
    16:00 +32°C° 0,2 mm 1 m/S 724 mmHg 56%
    17:00 +31°C° 0,1 mm 1 m/S 725 mmHg 62%
    18:00 +29°C° 0,1 mm 1 m/S 725 mmHg 69%
    19:00 +27°C° 0,1 mm 1 m/S 726 mmHg 76%
    20:00 +27°C° 0 mm 1 m/S 726 mmHg 79%
    21:00 +26°C° 0 mm 1 m/S 726 mmHg 82%
    22:00 +25°C° 0 mm 1 m/S 726 mmHg 85%
    23:00 +25°C° 0 mm 1 m/S 726 mmHg 87%

    30 September, Samstag

    Zeit Temperatur Niederschläge Wind Luftdruck Luftfeuchtigkeit
    00:00 +25°C° 0 mm 1 m/S 726 mmHg 88%
    01:00 +22°C° 0 mm 0 m/S 725 mmHg 90%
    02:00 +24°C° 0 mm 1 m/S 725 mmHg 91%
    03:00 +24°C° 0 mm 1 m/S 725 mmHg 92%
    04:00 +24°C° 0 mm 1 m/S 725 mmHg 93%
    05:00 +24°C° 0,8 mm 1 m/S 726 mmHg 94%
    06:00 +24°C° 0,8 mm 1 m/S 726 mmHg 94%
    07:00 +24°C° 0,8 mm 1 m/S 727 mmHg 95%
    08:00 +25°C° 1,6 mm 1 m/S 727 mmHg 93%
    09:00 +26°C° 1,6 mm 1 m/S 727 mmHg 91%
    10:00 +27°C° 1,6 mm 1 m/S 727 mmHg 89%
    11:00 +27°C° 1,5 mm 1 m/S 727 mmHg 88%
    12:00 +28°C° 1,5 mm 1 m/S 726 mmHg 87%
    13:00 +26°C° 1,5 mm 0 m/S 725 mmHg 86%
    14:00 +26°C° 0,9 mm 0 m/S 725 mmHg 86%
    15:00 +26°C° 0,9 mm 0 m/S 725 mmHg 86%
    16:00 +26°C° 0,9 mm 0 m/S 725 mmHg 86%
    17:00 +25°C° 0,3 mm 0 m/S 725 mmHg 89%
    18:00 +24°C° 0,3 mm 0 m/S 726 mmHg 93%
    19:00 +23°C° 0,3 mm 0 m/S 726 mmHg 96%
    20:00 +22°C° 0,3 mm 0 m/S 726 mmHg 96%
    21:00 +24°C° 0,3 mm 1 m/S 726 mmHg 97%
    22:00 +24°C° 0,3 mm 1 m/S 726 mmHg 97%
    23:00 +24°C° 0 mm 1 m/S 726 mmHg 97%

    1 Oktober, Sonntag

    Zeit Temperatur Niederschläge Wind Luftdruck Luftfeuchtigkeit
    00:00 +23°C° 0 mm 1 m/S 725 mmHg 97%
    01:00 +23°C° 0 mm 1 m/S 725 mmHg 97%
    02:00 +23°C° 0 mm 1 m/S 725 mmHg 97%
    03:00 +23°C° 0 mm 1 m/S 725 mmHg 97%
    04:00 +22°C° 0 mm 1 m/S 725 mmHg 97%
    05:00 +23°C° 0 mm 1 m/S 725 mmHg 96%
    06:00 +23°C° 0 mm 1 m/S 726 mmHg 94%
    07:00 +22°C° 0 mm 0 m/S 727 mmHg 93%
    08:00 +25°C° 0 mm 0 m/S 727 mmHg 78%
    09:00 +30°C° 0 mm 1 m/S 727 mmHg 63%
    10:00 +34°C° 0 mm 1 m/S 727 mmHg 49%
    11:00 +33°C° 0 mm 0 m/S 726 mmHg 45%
    12:00 +35°C° 0 mm 0 m/S 726 mmHg 40%
    13:00 +36°C° 0 mm 0 m/S 725 mmHg 36%
    14:00 +34°C° 0 mm 0 m/S 724 mmHg 43%
    15:00 +32°C° 0 mm 0 m/S 724 mmHg 49%
    16:00 +32°C° 0 mm 1 m/S 724 mmHg 56%
    17:00 +31°C° 0 mm 1 m/S 724 mmHg 60%
    18:00 +30°C° 0 mm 1 m/S 724 mmHg 64%
    19:00 +28°C° 0 mm 1 m/S 725 mmHg 69%
    20:00 +27°C° 0,1 mm 1 m/S 725 mmHg 74%
    21:00 +26°C° 0,1 mm 1 m/S 725 mmHg 79%
    22:00 +25°C° 0,1 mm 1 m/S 725 mmHg 84%
    23:00 +25°C° 0 mm 1 m/S 725 mmHg 85%
    Mehr zeigen